Location: Walton
(43.6794°N, 81.3017°W)
Time: 03:21:20
(UTC+00:00)

SL-08 ROCKET BODY - Pass Details

Date: 09 December 2025
Orbit: 896 x 961 km, 82.9° (Epoch: 12 January)

Event Time Altitude Azimuth Distance (km) Brightness Sun altitude
Rises 11:28:43 0° 183° (S) 3,512 7.6 -13.7°
Reaches altitude 10° 11:31:10 10° 183° (S) 2,570 6.9 -13.2°
Maximum altitude 11:37:00 83° 97° (E) 909 4.4 -12.2°
Drops below altitude 10° 11:42:52 10° 9° (N) 2,579 6.6 -11.3°
Sets 11:45:20 0° 9° (N) 3,526 7.3 -10.8°
